Location: Agendoh
(31.0664°N, 8.9343°W)
Time: 08:08:58
(UTC+00:00)

Cosmos 1503 Rocket - Pass Details

Date: 06 December 2021
Orbit: 752 x 791 km, 74.0° (Epoch: 24 January)

Event Time Altitude Azimuth Distance (km) Brightness Sun altitude
Rises 05:26:29 0° 200° (SSW) 3,211 7.2 -23.8°
Reaches altitude 10° 05:28:50 10° 202° (SSW) 2,294 6.4 -23.3°
Maximum altitude 05:34:02 72° 287° (WNW) 811 3.8 -22.2°
Drops below altitude 10° 05:39:20 10° 12° (NNE) 2,333 6.5 -21.1°
Sets 05:41:45 0° 14° (NNE) 3,270 7.3 -20.6°
